BEIDOU-3 M23 (C45)

Last updated on Dec. 11, 2019, 4:29 a.m. UTC

1 44542U 19061A   19344.75252154 -.00000001  00000-0  10000-3 0  9994
2 44542  54.9722 263.4366 0009303 314.2796 281.0469  1.86231678  1459
UTC
Height (km)
Latitude
Longitude
Inclination
Orbital Period
UTC large
Height (km)
Speed (km/s)
/
Latitude / Longitude
Inclination (degrees)
Orbital Period (minutes)
Azimuth
Elevation
Range (km)
Doppler Factor
iOS Compass Heading
iOS Angle

Next 30 passes for location: Hong Kong

Rise time Rise Azimuth (degrees) Set time Set Azimuth (degrees) Duration Max altitude (degrees)

No matching passes for this satellites